Time,TemperatureF,DewpointF,PressureIn,WindDirection,WindDirectionDegrees,WindSpeedMPH,WindSpeedGustMPH,Humidity,HourlyPrecipIn,Conditions,Clouds,dailyrainin,SolarRadiationWatts/m^2,SoftwareType,DateUTC
2013-02-22 00:01:00,48.0,41.0,-100.00,East,94,1.0,8.0,77,0.00,,,0.00,0.000000,,2013-02-22 08:01:00,
2013-02-22 00:11:00,48.0,41.0,-100.00,East,94,1.0,8.0,77,0.00,,,0.00,0.000000,,2013-02-22 08:11:00,
2013-02-22 00:21:00,48.0,41.0,-100.00,East,94,1.0,8.0,77,0.00,,,0.00,0.000000,,2013-02-22 08:21:00,
2013-02-22 00:52:00,45.0,40.0,-100.00,West,265,0.0,4.0,84,0.00,,,0.00,0.000000,,2013-02-22 08:52:00,
2013-02-22 01:03:00,45.0,40.0,-100.00,West,265,0.0,4.0,84,0.00,,,0.00,0.000000,,2013-02-22 09:03:00,
2013-02-22 01:11:00,45.0,40.0,-100.00,West,265,0.0,4.0,84,0.00,,,0.00,0.000000,,2013-02-22 09:11:00,
2013-02-22 01:21:00,45.0,40.0,-100.00,West,265,0.0,4.0,84,0.00,,,0.00,0.000000,,2013-02-22 09:21:00,
2013-02-22 01:52:00,43.0,39.0,-100.00,ENE,58,0.0,2.0,86,0.00,,,0.00,0.000000,,2013-02-22 09:52:00,
2013-02-22 02:01:00,43.0,39.0,-100.00,ENE,58,0.0,2.0,86,0.00,,,0.00,0.000000,,2013-02-22 10:01:00,
2013-02-22 02:11:00,43.0,39.0,-100.00,ENE,58,0.0,2.0,86,0.00,,,0.00,0.000000,,2013-02-22 10:11:00,
2013-02-22 02:21:00,43.0,39.0,-100.00,ENE,58,0.0,2.0,86,0.00,,,0.00,0.000000,,2013-02-22 10:21:00,
2013-02-22 02:52:00,43.0,39.0,-100.00,NNE,19,2.0,7.0,86,0.00,,,0.00,0.000000,,2013-02-22 10:52:00,
2013-02-22 03:01:00,43.0,39.0,-100.00,NNE,19,2.0,7.0,86,0.00,,,0.00,0.000000,,2013-02-22 11:01:00,
2013-02-22 03:11:00,43.0,39.0,-100.00,NNE,19,2.0,7.0,86,0.00,,,0.00,0.000000,,2013-02-22 11:11:00,
2013-02-22 03:21:00,43.0,39.0,-100.00,NNE,19,2.0,7.0,86,0.00,,,0.00,0.000000,,2013-02-22 11:21:00,
2013-02-22 03:52:00,44.0,40.0,-100.00,NW,318,1.0,5.0,86,0.00,,,0.00,0.000000,,2013-02-22 11:52:00,
2013-02-22 04:02:00,44.0,40.0,-100.00,NW,318,1.0,5.0,86,0.00,,,0.00,0.000000,,2013-02-22 12:02:00,
2013-02-22 04:11:00,44.0,40.0,-100.00,NW,318,1.0,5.0,86,0.00,,,0.00,0.000000,,2013-02-22 12:11:00,
2013-02-22 04:21:00,44.0,40.0,-100.00,NW,318,1.0,5.0,86,0.00,,,0.00,0.000000,,2013-02-22 12:21:00,
2013-02-22 04:52:00,43.0,39.0,-100.00,WNW,299,3.0,5.0,87,0.00,,,0.00,0.000000,,2013-02-22 12:52:00,
2013-02-22 05:01:00,43.0,39.0,-100.00,WNW,299,3.0,5.0,87,0.00,,,0.00,0.000000,,2013-02-22 13:01:00,
2013-02-22 05:11:00,43.0,39.0,-100.00,WNW,299,3.0,5.0,87,0.00,,,0.00,0.000000,,2013-02-22 13:11:00,
2013-02-22 05:22:00,43.0,39.0,-100.00,WNW,299,3.0,5.0,87,0.00,,,0.00,0.000000,,2013-02-22 13:22:00,
2013-02-22 05:52:00,41.0,39.0,-100.00,NNW,344,0.0,5.0,92,0.00,,,0.00,0.000000,,2013-02-22 13:52:00,
2013-02-22 06:01:00,41.0,39.0,-100.00,NNW,344,0.0,5.0,92,0.00,,,0.00,0.000000,,2013-02-22 14:01:00,
2013-02-22 06:11:00,41.0,39.0,-100.00,NNW,344,0.0,5.0,92,0.00,,,0.00,0.000000,,2013-02-22 14:11:00,
2013-02-22 06:21:00,41.0,39.0,-100.00,NNW,344,0.0,5.0,92,0.00,,,0.00,0.000000,,2013-02-22 14:21:00,
2013-02-22 06:53:00,41.0,37.0,-100.00,North,5,4.0,5.0,87,0.00,,,0.00,3.000000,,2013-02-22 14:53:00,
2013-02-22 07:01:00,41.0,37.0,-100.00,North,5,4.0,5.0,87,0.00,,,0.00,3.000000,,2013-02-22 15:01:00,
2013-02-22 07:11:00,41.0,37.0,-100.00,North,5,4.0,5.0,87,0.00,,,0.00,3.000000,,2013-02-22 15:11:00,
2013-02-22 07:21:00,41.0,37.0,-100.00,North,5,4.0,5.0,87,0.00,,,0.00,3.000000,,2013-02-22 15:21:00,
2013-02-22 07:52:00,45.0,40.0,-100.00,North,10,3.0,6.0,82,0.00,,,0.00,124.000000,,2013-02-22 15:52:00,
2013-02-22 08:01:00,45.0,40.0,-100.00,North,10,3.0,6.0,82,0.00,,,0.00,124.000000,,2013-02-22 16:01:00,
2013-02-22 08:11:00,45.0,40.0,-100.00,North,10,3.0,6.0,82,0.00,,,0.00,124.000000,,2013-02-22 16:11:00,
2013-02-22 08:21:00,45.0,40.0,-100.00,North,10,3.0,6.0,82,0.00,,,0.00,124.000000,,2013-02-22 16:21:00,
2013-02-22 08:52:00,53.0,42.0,-100.00,North,354,0.0,6.0,67,0.00,,,0.00,293.000000,,2013-02-22 16:52:00,
2013-02-22 09:01:00,53.0,42.0,-100.00,North,354,0.0,6.0,67,0.00,,,0.00,293.000000,,2013-02-22 17:01:00,
2013-02-22 09:52:00,58.0,34.0,-100.00,WNW,291,3.0,8.0,40,0.00,,,0.00,553.000000,,2013-02-22 17:52:00,
2013-02-22 10:01:00,58.0,34.0,-100.00,WNW,291,3.0,8.0,40,0.00,,,0.00,553.000000,,2013-02-22 18:01:00,
2013-02-22 10:12:00,58.0,34.0,-100.00,WNW,291,3.0,8.0,40,0.00,,,0.00,553.000000,,2013-02-22 18:12:00,
2013-02-22 10:22:00,58.0,34.0,-100.00,WNW,291,3.0,8.0,40,0.00,,,0.00,553.000000,,2013-02-22 18:22:00,
2013-02-22 10:52:00,60.0,26.0,-100.00,NW,322,6.0,11.0,27,0.00,,,0.00,816.000000,,2013-02-22 18:52:00,
2013-02-22 11:01:00,60.0,26.0,-100.00,NW,322,6.0,11.0,27,0.00,,,0.00,816.000000,,2013-02-22 19:01:00,
2013-02-22 11:52:00,62.0,23.0,-100.00,NNW,341,8.0,14.0,22,0.00,,,0.00,940.000000,,2013-02-22 19:52:00,
2013-02-22 12:01:00,62.0,23.0,-100.00,NNW,341,8.0,14.0,22,0.00,,,0.00,940.000000,,2013-02-22 20:01:00,
2013-02-22 12:52:00,64.0,23.0,-100.00,NW,308,6.0,15.0,21,0.00,,,0.00,983.000000,,2013-02-22 20:52:00,
2013-02-22 13:01:00,64.0,23.0,-100.00,NW,308,6.0,15.0,21,0.00,,,0.00,983.000000,,2013-02-22 21:01:00,
2013-02-22 13:21:00,64.0,23.0,-100.00,NW,308,6.0,15.0,21,0.00,,,0.00,983.000000,,2013-02-22 21:21:00,
2013-02-22 13:52:00,65.0,18.0,-100.00,NNW,332,10.0,16.0,16,0.00,,,0.00,937.000000,,2013-02-22 21:52:00,
2013-02-22 14:01:00,65.0,18.0,-100.00,NNW,332,10.0,16.0,16,0.00,,,0.00,937.000000,,2013-02-22 22:01:00,
2013-02-22 14:52:00,64.0,15.0,-100.00,NNE,25,10.0,18.0,15,0.00,,,0.00,810.000000,,2013-02-22 22:52:00,
2013-02-22 15:01:00,64.0,15.0,-100.00,NNE,25,10.0,18.0,15,0.00,,,0.00,810.000000,,2013-02-22 23:01:00,
2013-02-22 15:52:00,67.0,16.0,-100.00,NW,312,7.0,17.0,14,0.00,,,0.00,614.000000,,2013-02-22 23:52:00,
2013-02-22 16:01:00,67.0,16.0,-100.00,NW,312,7.0,17.0,14,0.00,,,0.00,614.000000,,2013-02-23 00:01:00,
2013-02-22 16:11:00,67.0,16.0,-100.00,NW,312,7.0,17.0,14,0.00,,,0.00,614.000000,,2013-02-23 00:11:00,
2013-02-22 16:21:00,67.0,16.0,-100.00,NW,312,7.0,17.0,14,0.00,,,0.00,614.000000,,2013-02-23 00:21:00,
2013-02-22 16:52:00,64.0,15.0,-100.00,NNW,345,6.0,16.0,15,0.00,,,0.00,359.000000,,2013-02-23 00:52:00,
2013-02-22 17:01:00,64.0,15.0,-100.00,NNW,345,6.0,16.0,15,0.00,,,0.00,359.000000,,2013-02-23 01:01:00,
2013-02-22 17:11:00,64.0,15.0,-100.00,NNW,345,6.0,16.0,15,0.00,,,0.00,359.000000,,2013-02-23 01:11:00,
2013-02-22 17:21:00,64.0,15.0,-100.00,NNW,345,6.0,16.0,15,0.00,,,0.00,359.000000,,2013-02-23 01:21:00,
2013-02-22 17:52:00,62.0,22.0,-100.00,North,6,8.0,14.0,21,0.00,,,0.00,83.000000,,2013-02-23 01:52:00,
2013-02-22 18:01:00,62.0,22.0,-100.00,North,6,8.0,14.0,21,0.00,,,0.00,83.000000,,2013-02-23 02:01:00,
2013-02-22 18:11:00,62.0,22.0,-100.00,North,6,8.0,14.0,21,0.00,,,0.00,83.000000,,2013-02-23 02:11:00,
2013-02-22 18:21:00,62.0,22.0,-100.00,North,6,8.0,14.0,21,0.00,,,0.00,83.000000,,2013-02-23 02:21:00,
2013-02-22 18:52:00,60.0,20.0,-100.00,NNW,331,4.0,11.0,21,0.00,,,0.00,1.000000,,2013-02-23 02:52:00,
2013-02-22 19:01:00,60.0,20.0,-100.00,NNW,331,4.0,11.0,21,0.00,,,0.00,1.000000,,2013-02-23 03:01:00,
2013-02-22 19:11:00,60.0,20.0,-100.00,NNW,331,4.0,11.0,21,0.00,,,0.00,1.000000,,2013-02-23 03:11:00,
2013-02-22 19:21:00,60.0,20.0,-100.00,NNW,331,4.0,11.0,21,0.00,,,0.00,1.000000,,2013-02-23 03:21:00,
2013-02-22 19:52:00,59.0,22.0,-100.00,NE,52,3.0,10.0,24,0.00,,,0.00,0.000000,,2013-02-23 03:52:00,
2013-02-22 20:01:00,59.0,22.0,-100.00,NE,52,3.0,10.0,24,0.00,,,0.00,0.000000,,2013-02-23 04:01:00,
2013-02-22 20:11:00,59.0,22.0,-100.00,NE,52,3.0,10.0,24,0.00,,,0.00,0.000000,,2013-02-23 04:11:00,
2013-02-22 20:21:00,59.0,22.0,-100.00,NE,52,3.0,10.0,24,0.00,,,0.00,0.000000,,2013-02-23 04:21:00,
2013-02-22 20:52:00,55.0,30.0,-100.00,West,261,0.0,4.0,38,0.00,,,0.00,0.000000,,2013-02-23 04:52:00,
2013-02-22 21:02:00,55.0,30.0,-100.00,West,261,0.0,4.0,38,0.00,,,0.00,0.000000,,2013-02-23 05:02:00,
2013-02-22 21:12:00,55.0,30.0,-100.00,West,261,0.0,4.0,38,0.00,,,0.00,0.000000,,2013-02-23 05:12:00,
2013-02-22 21:22:00,55.0,30.0,-100.00,West,261,0.0,4.0,38,0.00,,,0.00,0.000000,,2013-02-23 05:22:00,
2013-02-22 21:52:00,53.0,29.0,-100.00,WSW,245,0.0,5.0,40,0.00,,,-99.99,0.000000,,2013-02-23 05:52:00,
2013-02-22 22:01:00,53.0,29.0,-100.00,WSW,245,0.0,5.0,40,0.00,,,-99.99,0.000000,,2013-02-23 06:01:00,
2013-02-22 22:11:00,53.0,29.0,-100.00,WSW,245,0.0,5.0,40,0.00,,,-99.99,0.000000,,2013-02-23 06:11:00,
2013-02-22 22:21:00,53.0,29.0,-100.00,WSW,245,0.0,5.0,40,0.00,,,-99.99,0.000000,,2013-02-23 06:21:00,
2013-02-22 22:52:00,51.0,35.0,-100.00,NNE,16,1.0,6.0,54,0.00,,,0.00,0.000000,,2013-02-23 06:52:00,
2013-02-22 23:01:00,51.0,35.0,-100.00,NNE,16,1.0,6.0,54,0.00,,,0.00,0.000000,,2013-02-23 07:01:00,
2013-02-22 23:11:00,51.0,35.0,-100.00,NNE,16,1.0,6.0,54,0.00,,,0.00,0.000000,,2013-02-23 07:11:00,
2013-02-22 23:21:00,51.0,35.0,-100.00,NNE,16,1.0,6.0,54,0.00,,,0.00,0.000000,,2013-02-23 07:21:00,
2013-02-22 23:52:00,51.0,25.0,-100.00,NNW,340,0.0,4.0,36,0.00,,,0.00,0.000000,,2013-02-23 07:52:00,